When you browse on this site, cookies collect data to enhance your experience and personalize the content and advertising you see.
Visit our Privacy Policy to learn more. By continuing to use the site, you agree to this use of cookies and data.
  • In United Kingdom
  • List of Countries
  • For 7 days
  • Water Temperature
  • Satellite Maps
  • Weather Map
  • Weather Widgets
  • user-avatar
    Login

    Hourly Weather Szekesfehervar

    Today, 25 June, Tuesday

    Time Temperature Precipitation Wind Pressure Humidity
    00:00 +21°C° 0 mm 1 mps 755 mmHg 89%
    01:00 +21°C° 0 mm 1 mps 755 mmHg 89%
    02:00 +21°C° 0 mm 1 mps 755 mmHg 88%
    03:00 +21°C° 0 mm 1 mps 755 mmHg 88%
    04:00 +21°C° 0 mm 1 mps 755 mmHg 87%
    05:00 +22°C° 0 mm 1 mps 755 mmHg 84%
    06:00 +23°C° 0 mm 1 mps 756 mmHg 82%
    07:00 +25°C° 0 mm 2 mps 756 mmHg 79%
    08:00 +26°C° 0 mm 2 mps 756 mmHg 75%
    09:00 +27°C° 0 mm 2 mps 756 mmHg 71%
    10:00 +28°C° 0 mm 2 mps 756 mmHg 68%
    11:00 +29°C° 0 mm 2 mps 756 mmHg 65%
    12:00 +30°C° 0 mm 2 mps 756 mmHg 62%
    13:00 +31°C° 0 mm 2 mps 756 mmHg 59%
    14:00 +31°C° 0 mm 2 mps 756 mmHg 59%
    15:00 +31°C° 0 mm 2 mps 756 mmHg 59%
    16:00 +31°C° 0 mm 2 mps 756 mmHg 59%
    17:00 +30°C° 0 mm 2 mps 756 mmHg 64%
    18:00 +29°C° 0 mm 1 mps 756 mmHg 69%
    19:00 +28°C° 0 mm 1 mps 756 mmHg 74%
    20:00 +26°C° 0 mm 1 mps 756 mmHg 77%
    21:00 +25°C° 0 mm 1 mps 756 mmHg 80%
    22:00 +22°C° 0 mm 0 mps 757 mmHg 84%
    23:00 +24°C° 0 mm 1 mps 757 mmHg 85%

    Tomorrow, 26 June, Wednesday

    Time Temperature Precipitation Wind Pressure Humidity
    00:00 +23°C° 0 mm 1 mps 757 mmHg 86%
    01:00 +23°C° 0 mm 1 mps 757 mmHg 87%
    02:00 +21°C° 0 mm 0 mps 757 mmHg 87%
    03:00 +21°C° 0 mm 0 mps 756 mmHg 88%
    04:00 +20°C° 0 mm 0 mps 756 mmHg 88%
    05:00 +24°C° 0 mm 1 mps 756 mmHg 84%
    06:00 +25°C° 0 mm 1 mps 757 mmHg 80%
    07:00 +26°C° 0 mm 1 mps 757 mmHg 76%
    08:00 +28°C° 0 mm 1 mps 757 mmHg 72%
    09:00 +29°C° 0 mm 1 mps 757 mmHg 69%
    10:00 +30°C° 0 mm 1 mps 757 mmHg 65%
    11:00 +31°C° 0 mm 1 mps 757 mmHg 62%
    12:00 +32°C° 0 mm 1 mps 756 mmHg 58%
    13:00 +32°C° 0 mm 1 mps 756 mmHg 55%
    14:00 +32°C° 0 mm 1 mps 756 mmHg 54%
    15:00 +33°C° 0 mm 1 mps 755 mmHg 54%
    16:00 +33°C° 0 mm 1 mps 755 mmHg 53%
    17:00 +31°C° 0 mm 1 mps 755 mmHg 59%
    18:00 +30°C° 0 mm 1 mps 754 mmHg 65%
    19:00 +28°C° 0 mm 1 mps 754 mmHg 71%
    20:00 +27°C° 0 mm 1 mps 754 mmHg 73%
    21:00 +26°C° 0 mm 1 mps 754 mmHg 74%
    22:00 +25°C° 0 mm 1 mps 754 mmHg 76%
    23:00 +25°C° 0 mm 1 mps 754 mmHg 77%

    Day after tomorrow, 27 June, Thursday

    Time Temperature Precipitation Wind Pressure Humidity
    00:00 +25°C° 0 mm 1 mps 754 mmHg 79%
    01:00 +24°C° 0 mm 1 mps 754 mmHg 81%
    02:00 +24°C° 0 mm 1 mps 753 mmHg 83%
    03:00 +24°C° 0 mm 1 mps 753 mmHg 84%
    04:00 +23°C° 0 mm 1 mps 752 mmHg 86%
    05:00 +25°C° 0 mm 2 mps 752 mmHg 83%
    06:00 +26°C° 0 mm 2 mps 752 mmHg 81%
    07:00 +28°C° 0 mm 3 mps 752 mmHg 78%
    08:00 +29°C° 0 mm 3 mps 752 mmHg 76%
    09:00 +30°C° 0 mm 4 mps 752 mmHg 73%
    10:00 +32°C° 0 mm 5 mps 751 mmHg 70%
    11:00 +32°C° 0.7 mm 5 mps 751 mmHg 69%
    12:00 +33°C° 0.7 mm 6 mps 751 mmHg 67%
    13:00 +33°C° 0.7 mm 7 mps 750 mmHg 66%
    14:00 +32°C° 0 mm 7 mps 750 mmHg 66%
    15:00 +32°C° 0 mm 7 mps 750 mmHg 66%
    16:00 +30°C° 0 mm 7 mps 750 mmHg 67%
    17:00 +28°C° 0 mm 7 mps 750 mmHg 68%
    18:00 +26°C° 0 mm 6 mps 750 mmHg 70%
    19:00 +24°C° 0 mm 6 mps 750 mmHg 72%
    20:00 +23°C° 0 mm 6 mps 751 mmHg 65%
    21:00 +22°C° 0 mm 6 mps 752 mmHg 58%
    22:00 +21°C° 0 mm 6 mps 752 mmHg 50%
    23:00 +20°C° 0 mm 5 mps 752 mmHg 54%

    28 June, Friday

    Time Temperature Precipitation Wind Pressure Humidity
    00:00 +19°C° 0 mm 5 mps 753 mmHg 57%
    01:00 +17°C° 0 mm 5 mps 753 mmHg 61%
    02:00 +16°C° 0 mm 5 mps 753 mmHg 64%
    03:00 +17°C° 0 mm 4 mps 753 mmHg 66%
    04:00 +15°C° 0 mm 4 mps 753 mmHg 69%
    05:00 +16°C° 0 mm 5 mps 753 mmHg 70%
    06:00 +17°C° 0 mm 5 mps 753 mmHg 71%
    07:00 +19°C° 0 mm 5 mps 753 mmHg 72%
    08:00 +21°C° 0 mm 5 mps 753 mmHg 68%
    09:00 +22°C° 0 mm 5 mps 753 mmHg 64%
    10:00 +23°C° 0 mm 6 mps 753 mmHg 60%
    11:00 +24°C° 0 mm 6 mps 753 mmHg 59%
    12:00 +24°C° 0 mm 6 mps 752 mmHg 58%
    13:00 +26°C° 0 mm 6 mps 752 mmHg 57%
    14:00 +26°C° 0 mm 6 mps 752 mmHg 58%
    15:00 +26°C° 0 mm 5 mps 752 mmHg 58%
    16:00 +26°C° 0 mm 5 mps 751 mmHg 59%
    17:00 +25°C° 0 mm 5 mps 751 mmHg 64%
    18:00 +22°C° 0 mm 4 mps 751 mmHg 69%
    19:00 +21°C° 0 mm 3 mps 751 mmHg 74%
    20:00 +20°C° 0 mm 3 mps 752 mmHg 75%
    21:00 +19°C° 0 mm 3 mps 752 mmHg 76%
    22:00 +18°C° 0 mm 3 mps 752 mmHg 76%
    23:00 +18°C° 0 mm 3 mps 752 mmHg 76%

    29 June, Saturday

    Time Temperature Precipitation Wind Pressure Humidity
    00:00 +17°C° 0 mm 3 mps 752 mmHg 75%
    01:00 +17°C° 0 mm 3 mps 752 mmHg 74%
    02:00 +15°C° 0 mm 4 mps 752 mmHg 76%
    03:00 +15°C° 0 mm 4 mps 752 mmHg 78%
    04:00 +14°C° 0 mm 4 mps 752 mmHg 79%
    05:00 +15°C° 0 mm 4 mps 752 mmHg 79%
    06:00 +17°C° 0 mm 4 mps 753 mmHg 79%
    07:00 +18°C° 0 mm 4 mps 753 mmHg 79%
    08:00 +19°C° 0 mm 3 mps 753 mmHg 75%
    09:00 +21°C° 0 mm 3 mps 754 mmHg 70%
    10:00 +23°C° 0 mm 2 mps 754 mmHg 66%
    11:00 +24°C° 0.1 mm 2 mps 754 mmHg 63%
    12:00 +24°C° 0.1 mm 2 mps 754 mmHg 61%
    13:00 +24°C° 0.1 mm 2 mps 753 mmHg 59%
    14:00 +25°C° 0.1 mm 2 mps 753 mmHg 57%
    15:00 +25°C° 0.1 mm 2 mps 753 mmHg 56%
    16:00 +25°C° 0.1 mm 2 mps 753 mmHg 54%
    17:00 +24°C° 0 mm 2 mps 753 mmHg 60%
    18:00 +23°C° 0 mm 2 mps 753 mmHg 65%
    19:00 +21°C° 0 mm 2 mps 754 mmHg 70%
    20:00 +19°C° 0 mm 2 mps 754 mmHg 72%
    21:00 +18°C° 0 mm 2 mps 754 mmHg 75%
    22:00 +17°C° 0 mm 2 mps 754 mmHg 77%
    23:00 +16°C° 0 mm 2 mps 754 mmHg 78%

    30 June, Sunday

    Time Temperature Precipitation Wind Pressure Humidity
    00:00 +16°C° 0 mm 1 mps 754 mmHg 78%
    01:00 +15°C° 0 mm 1 mps 754 mmHg 79%
    02:00 +15°C° 0 mm 1 mps 754 mmHg 81%
    03:00 +15°C° 0 mm 1 mps 754 mmHg 82%
    04:00 +14°C° 0 mm 1 mps 754 mmHg 83%
    05:00 +16°C° 0 mm 1 mps 754 mmHg 79%
    06:00 +18°C° 0 mm 1 mps 755 mmHg 76%
    07:00 +20°C° 0 mm 1 mps 755 mmHg 72%
    08:00 +22°C° 0 mm 1 mps 755 mmHg 67%
    09:00 +23°C° 0 mm 1 mps 755 mmHg 62%
    10:00 +25°C° 0 mm 1 mps 755 mmHg 57%
    11:00 +25°C° 0 mm 1 mps 754 mmHg 55%
    12:00 +26°C° 0 mm 1 mps 754 mmHg 52%
    13:00 +26°C° 0 mm 2 mps 754 mmHg 50%
    14:00 +27°C° 0 mm 2 mps 754 mmHg 50%
    15:00 +27°C° 0 mm 2 mps 754 mmHg 51%
    16:00 +27°C° 0 mm 2 mps 753 mmHg 52%
    17:00 +25°C° 0 mm 2 mps 753 mmHg 60%
    18:00 +24°C° 0 mm 2 mps 753 mmHg 68%
    19:00 +22°C° 0 mm 3 mps 753 mmHg 77%
    20:00 +21°C° 0 mm 2 mps 753 mmHg 79%
    21:00 +19°C° 0 mm 2 mps 753 mmHg 82%
    22:00 +18°C° 0 mm 2 mps 753 mmHg 84%
    23:00 +18°C° 0 mm 2 mps 753 mmHg 84%
    Show more